Find Starlink 2711

NORAD ID: 48673 Int'l Des: 2021-044 Owner: SPXS Country: US Constellation: starlink operational
LEOCIRCULARSTARLINK_TYPE

リアルタイム位置

3D地球を読み込み中...

Starlink 2711について

説明を読み込み中...

次回通過

Passes for default location (London). Set your location on the main map for personalized predictions.

高度履歴

Loading altitude history...

軌道要素

1 48673U 21044AM 26106.71012683 .00001411 00000-0 61229-4 0 9993
2 48673 53.1563 297.1065 0001411 90.1118 270.0044 15.29350939269639
Epoch: Apr 16, 2026 • Age: 27 hours

現在のステータス

高度 480.0 km
速度 7.63 km/s
衛星直下点 37.05°N, 178.57°W
打ち上げ日 May 26, 2021
運用期間 4.8 years
タイプ internet

技術仕様

分類 Payload
質量 260.00 kg
乾燥質量 248.00 kg
総質量 260.00 kg
長さ 0.20 m
直径 2.80 m
スパン 9.00 m
形状 Box + pan
製造者 SPXS
バスタイプ Starlink
フェーズステータス In Orbit
所有者/国 SPXS/US

Most Searched